MUOS-1

Last updated on Mon Oct 14 2024 00:02:39 GMT+0000 (Coordinated Universal Time)

1 38093U 12009A 24287.46512066 -.00000125 00000+0 00000+0 0 9995 2 38093 4.2616 45.6027 0050242 1.6880 42.6713 1.00273678 46326
UTC large
Height (km)
Speed (km/s)
/
Latitude / Longitude
Inclination (degrees)
Orbital Period (minutes)
Azimuth
Elevation
Range (km)
Doppler Factor

Next 0 passes for location: London (51.5072 / 0.1276)

Sorry there are no passes over London.